Regional Weather Roundup
Issued by NWS

Home | Current Version | Previous Version | Graphics & Text | Print | Product List | Glossary On
Versions: 1 2 3 4 5 6 7 8 9 10 11 12 13 14 15 16 17 18 19 20 21 22 23 24 25 26 27 28 29 30 31 32 33 34 35 36 37 38 39 40 41 42 43 44 45 46 47 48 49 50
000
ASUS43 KOAX 221710
RWRNE

WEATHER ROUNDUP FOR NEBRASKA
NATIONAL WEATHER SERVICE OMAHA NE
1100 AM CST MON DEC 22 2014

NOTES: SATELLITE DATA IS BEING USED TO AUGMENT CLOUD COVER ABOVE
       12000 FEET.
       "FAIR" INDICATES FEW OR NO CLOUDS BELOW 12,000 FEET WITH NO
       SIGNIFICANT WEATHER AND/OR OBSTRUCTIONS TO VISIBILITY.

  * THESE STATIONS DO NOT REPORT WEATHER SUCH AS RAIN...SNOW OR FOG.

NEZ001>004-019>022-054>056-221800-
NEBRASKA PANHANDLE

CITY           SKY/WX    TMP DP  RH WIND       PRES   REMARKS
SCOTTSBLUFF    MOSUNNY   35  25  66 NW9       29.68F WCI  28
ALLIANCE       SUNNY     35  25  66 W18       29.61F WCI  24
CHADRON        CLOUDY    39  25  57 NW16G26   29.64F WCI  30
KIMBALL        SUNNY     32  26  78 NW13G20   29.67F WCI  23
SIDNEY         SUNNY     37  24  59 NW18      29.67S WCI  27
$$

NEZ057>060-069>072-079>082-221800-
SOUTHWEST NEBRASKA

CITY           SKY/WX    TMP DP  RH WIND       PRES   REMARKS
NORTH PLATTE   MOSUNNY   43  28  55 NW23G30   29.58F
IMPERIAL       PTSUNNY   41  27  57 NW13      29.65R
LEXINGTON      CLOUDY    42  35  75 NW17      29.56F
MCCOOK         PTSUNNY   45  29  53 NW22G29   29.62S
OGALLALA       SUNNY     40  29  65 NW18      29.63S WCI  30
$$

NEZ005>010-023>029-035>040-094-221800-
NORTH CENTRAL NEBRASKA

CITY           SKY/WX    TMP DP  RH WIND       PRES   REMARKS
VALENTINE      PTSUNNY   40  29  64 NW21G28   29.51S WCI  30
AINSWORTH      CLOUDY    39  30  70 NW22G29   29.50S WCI  29
BROKEN BOW     MOSUNNY   43  33  68 NW18      29.53S
O`NEILL        CLOUDY    40  37  92 NW17      29.48S WCI  31
THEDFORD       SUNNY     43  31  62 NW21G28   29.53F
$$

NEZ041-046>049-061>064-073>077-083>087-221800-
SOUTH CENTRAL NEBRASKA

CITY           SKY/WX    TMP DP  RH WIND       PRES   REMARKS
GRAND ISLAND   CLOUDY    43  35  73 NW20      29.52F
AURORA         CLOUDY    44  37  78 NW18G25   29.51S
HASTINGS       CLOUDY    45  35  68 NW20      29.53S
HEBRON         CLOUDY    43  38  81 NW10G18   29.52F
HOLDREGE       PTSUNNY   44  36  73 W12G18    29.56F
KEARNEY *      PTSUNNY   43  34  70 W14       29.56R
YORK           CLOUDY    43  39  87 NW17      29.49F
$$

NEZ011>018-030>034-042>045-221800-
NORTHEAST NEBRASKA

CITY           SKY/WX    TMP DP  RH WIND       PRES   REMARKS
NORFOLK        CLOUDY    42  39  89 NW12G20   29.46S
ALBION         PTSUNNY   42  38  84 NW16      29.48F
BLAIR          LGT RAIN  43  40  91 SE10      29.47F
COLUMBUS *     CLOUDY    43  37  81 NW17      29.49F
FREMONT        CLOUDY    43  42  97 S7        29.47F FOG
TEKAMAH        LGT RAIN  43  41  93 SE14      29.48F
WAYNE          CLOUDY    42  38  86 N7        29.47F
$$

NEZ050>053-065>068-078-088>093-221800-
SOUTHEAST NEBRASKA

CITY           SKY/WX    TMP DP  RH WIND       PRES   REMARKS
LINCOLN        CLOUDY    44  40  85 NW12      29.49F
OMAHA EPPLEY   LGT RAIN  42  41  96 SE13      29.50F FOG
BEATRICE       CLOUDY    43  41  93 NW13      29.49S
FALLS CITY     RAIN      43  32  65 S12       29.50F
NEBRASKA CITY  RAIN      41  41 100 SE7       29.49F
PLATTSMOUTH    DRIZZLE   41  40  95 SE12      29.49F
$$

NEZ044-045-051>053-067-221800-
OMAHA AREA

CITY           SKY/WX    TMP DP  RH WIND       PRES   REMARKS
OMAHA EPPLEY   LGT RAIN  42  41  96 SE13      29.50F FOG
BLAIR          LGT RAIN  43  40  91 SE10      29.47F
FREMONT        CLOUDY    43  42  97 S7        29.47F FOG
MILLARD        LGT RAIN  43  41  93 SE9       29.49F
PLATTSMOUTH    DRIZZLE   41  40  95 SE12      29.49F
WAHOO          CLOUDY    43  40  91 SW5       29.48F FOG
$$



USA.gov is the U.S. government's official web portal to all federal, state and local government web resources and services.